Flag for Japan Weather past 2 weeks in Yokohama, Japan

63 °F

Partly sunny.

Feels Like: 63 °F
Forecast: 60 / 66 °F
Wind: 16 mph from Northeast

Location: Tokyo International Airport

Current Time: Oct 5, 2015 at 7:24:04 AM

Latest Report: Oct 5, 2015 at 6:30 AM

Visibility: N/A

Pressure: 30.24 "Hg

Humidity: 56%

Dew point: 46 °F

Location of YokohamaLocation

Historic Weather in Yokohama — Graph


Yokohama temperature yesterday

Maximum temperature yesterday: 77 °F (at 2:00 PM)
Minimum temperature yesterday: 66 °F (at 6:30 AM)
Average temperature yesterday: 71 °F

Past Weeks' High & Low Weather Summary

High82 °F (Oct 2, 2:30 PM)100% (Sep 25, 2:00 AM)30.24 "Hg (Sep 25, 2:00 AM)
Low61 °F (Oct 1, 5:00 AM)29% (Sep 30, 1:00 PM)29.36 "Hg (Oct 2, 3:30 AM)
Average72 °F74%29.92 "Hg
* Reported Sep 20 6:00 AM — Oct 5 6:00 AM, Yokohama, Weather by CustomWeather, © 2015

Note: Actual official high and low records may vary slightly from our data, if they occured in-between our weather recording intervals... More about our weather records


Yokohama weather history for previous 24 hours

Time TempWeatherWind HumidityBarometerVisibility
6:00 AM
Mon, Oct 5
63 °FPartly sunny.17 mph56%30.24 "HgN/A
5:30 AM63 °FPassing clouds.16 mph56%30.24 "HgN/A
5:00 AM63 °FPassing clouds.17 mph56%30.24 "HgN/A
4:30 AM63 °FPassing clouds.20 mph59%30.21 "HgN/A
4:00 AM64 °FPassing clouds.21 mph60%30.21 "HgN/A
3:30 AM64 °FPassing clouds.17 mph64%30.21 "HgN/A
3:00 AM64 °FPassing clouds.16 mph64%30.21 "HgN/A
2:30 AM64 °FPassing clouds.17 mph68%30.21 "HgN/A
2:00 AM64 °FPassing clouds.16 mph68%30.18 "HgN/A
1:30 AM64 °FPassing clouds.17 mph68%30.18 "HgN/A
1:00 AM64 °FSprinkles. Passing clouds.16 mph68%30.21 "HgN/A
12:30 AM66 °FSprinkles. Passing clouds.22 mph64%30.18 "HgN/A
12:00 AM66 °FSprinkles. Passing clouds.20 mph68%30.18 "HgN/A
11:30 PM
Sun, Oct 4
68 °FPassing clouds.17 mph64%30.18 "HgN/A
11:00 PM68 °FPassing clouds.22 mph64%30.15 "HgN/A
10:30 PM68 °FPartly cloudy.22 mph64%30.15 "HgN/A
10:00 PM68 °FSprinkles. Partly cloudy.18 mph69%30.18 "HgN/A
9:30 PM68 °FSprinkles. Partly cloudy.22 mph69%30.18 "HgN/A
9:00 PM68 °FPassing clouds.22 mph73%30.15 "HgN/A
8:30 PM68 °FPassing clouds.23 mph73%30.15 "HgN/A
8:00 PM68 °FPassing clouds.23 mph78%30.15 "HgN/A
7:30 PM68 °FPassing clouds.23 mph83%30.15 "HgN/A
7:00 PM70 °FPartly cloudy.23 mph78%30.12 "HgN/A
6:30 PM70 °FPartly cloudy.23 mph78%30.12 "HgN/A
6:00 PM72 °FPartly cloudy.22 mph73%30.12 "HgN/A
5:30 PM72 °FPassing clouds.21 mph73%30.09 "HgN/A
5:00 PM73 °FScattered clouds.22 mph69%30.09 "HgN/A
4:30 PM73 °FPassing clouds.21 mph69%30.07 "HgN/A
4:00 PM75 °FPassing clouds.18 mph69%30.07 "HgN/A
3:30 PM75 °FPassing clouds.20 mph65%30.07 "HgN/A
3:00 PM75 °FScattered clouds.16 mph65%30.07 "HgN/A
2:30 PM77 °FPartly sunny.7 mph61%30.04 "HgN/A
2:00 PM77 °FScattered clouds.8 mph65%30.04 "HgN/A
12:30 PM75 °FScattered clouds.3 mph65%30.07 "HgN/A
12:00 PM75 °FScattered clouds.5 mph61%30.07 "HgN/A
11:30 AM73 °FScattered clouds.3 mph65%30.07 "HgN/A
11:00 AM75 °FScattered clouds.3 mph61%30.07 "HgN/A
10:30 AM75 °FScattered clouds.1 mph57%30.09 "HgN/A
10:00 AM75 °FScattered clouds.2 mph61%30.09 "HgN/A
9:30 AM73 °FPartly sunny.3 mph65%30.09 "HgN/A
9:00 AM73 °FPartly sunny.5 mph65%30.09 "HgN/A
8:30 AM72 °FPartly sunny.5 mph69%30.09 "HgN/A
8:00 AM70 °FPartly sunny.7 mph73%30.09 "HgN/A
7:30 AM70 °FPartly sunny.8 mph69%30.09 "HgN/A
Weather by CustomWeather, © 2015

See weather overviewHow to use our weather pages